This is the latest recevied weather packets stored in our database for station/object DK6OC-10. If no packets are shown the sender has not sent any weather packets the latest 10 day(s).
| Time | Temp. | Humidity | Pressure | Rain* | Wind** | Luminosity | Snow |
|---|---|---|---|---|---|---|---|
| 1777456834 | 22.78° C | 22% | 1020.7 hPa | - | - | - | - |
| 1777455034 | 22.22° C | 21% | 1020.7 hPa | - | - | - | - |
| 1777453234 | 21.11° C | 23% | 1021 hPa | - | - | - | - |
| 1777451434 | 21.11° C | 23% | 1020.9 hPa | - | - | - | - |
| 1777449634 | 20.56° C | 24% | 1021 hPa | - | - | - | - |
| 1777447833 | 19.44° C | 26% | 1020.8 hPa | - | - | - | - |
| 1777446033 | 18.33° C | 27% | 1020.8 hPa | - | - | - | - |
| 1777444233 | 17.78° C | 27% | 1020.6 hPa | - | - | - | - |
| 1777442433 | 17.78° C | 27% | 1020.5 hPa | - | - | - | - |
| 1777440632 | 17.78° C | 27% | 1020.3 hPa | - | - | - | - |
| 1777438831 | 17.22° C | 27% | 1020.1 hPa | - | - | - | - |
| 1777437031 | 17.22° C | 27% | 1019.9 hPa | - | - | - | - |
| 1777435231 | 17.22° C | 27% | 1019.8 hPa | - | - | - | - |
| 1777433431 | 17.78° C | 27% | 1019.8 hPa | - | - | - | - |
| 1777431631 | 17.78° C | 27% | 1019.6 hPa | - | - | - | - |
| 1777429831 | 17.78° C | 27% | 1019.5 hPa | - | - | - | - |
| 1777428031 | 17.78° C | 27% | 1019.4 hPa | - | - | - | - |
| 1777426231 | 18.33° C | 26% | 1019.5 hPa | - | - | - | - |
| 1777424431 | 18.33° C | 27% | 1019.6 hPa | - | - | - | - |
| 1777422630 | 18.89° C | 27% | 1019.3 hPa | - | - | - | - |
| 1777420830 | 19.44° C | 27% | 1019.3 hPa | - | - | - | - |
| 1777419030 | 19.44° C | 27% | 1019.2 hPa | - | - | - | - |
| 1777417230 | 19.44° C | 26% | 1019 hPa | - | - | - | - |
| 1777415430 | 20° C | 26% | 1019 hPa | - | - | - | - |
| 1777413630 | 20° C | 27% | 1018.7 hPa | - | - | - | - |
* Rain since midnight (hover to see other rain measurements)
** Current wind speed in m/s (hover to see current wind gust speed)